Location: Lansingburgh
(42.7845°N, 73.6696°W)
Time: 06:29:29
(UTC+00:00)

Cosmos 1703 - Pass Details

Date: 24 January 2020
Orbit: 524 x 541 km, 82.5° (Epoch: 17 February)

Event Time Altitude Azimuth Distance (km) Brightness Sun altitude
Rises 23:03:29 0° 177° (S) 2,681 7.0 -12.3°
Reaches altitude 10° 23:05:39 10° 173° (S) 1,795 6.0 -12.7°
Maximum altitude 23:09:31 57° 95° (E) 643 3.3 -13.4°
Drops below altitude 10° 23:13:26 10° 16° (NNE) 1,813 5.7 -14.1°
Enters shadow 23:15:04 - 13° (NNE) 2,480 6.4 -14.4°
